Weather Service Report


512 
ASUS42 KRAH 241710
RWRRAH
NORTH CAROLINA WEATHER ROUNDUP
NATIONAL WEATHER SERVICE RALEIGH NC
1200 PM EST MON NOV 24 2014

NOTE: "FAIR" INDICATES FEW OR NO CLOUDS BELOW 12,000 FEET WITH NO
SIGNIFICANT WEATHER AND/OR OBSTRUCTIONS TO VISIBILITY.

NCZ001-053-055-056-065-067-241800-
WESTERN NORTH CAROLINA
  
CITY           SKY/WX    TMP DP  RH WIND       PRES   REMARKS
ASHEVILLE      SUNNY     65  52  62 S17G26    29.77S                  
JEFFERSON      SUNNY     61  45  54 S6        29.74F                  
MORGANTON      MOSUNNY   68  53  58 S12G17    29.79F                  
HICKORY        MOSUNNY   66  55  67 SW13G25   29.75F                  
RUTHERFORDTON  SUNNY     66  55  66 S17G26    29.78F                  
MOUNT AIRY     CLOUDY    65  57  73 SW8G18    29.76F                  
BOONE          SUNNY     58  49  73 S6        29.78F                  
$$
 
NCZ021-022-025-041-071-084-088-241800-
CENTRAL NORTH CAROLINA
  
CITY           SKY/WX    TMP DP  RH WIND       PRES   REMARKS
CHARLOTTE      CLOUDY    68  58  70 SW13      29.80F                  
GREENSBORO     MOSUNNY   68  55  63 SW24G30   29.76F                  
WINSTON-SALEM  SUNNY     68  53  58 SW15G25   29.76F                  
RALEIGH-DURHAM PTSUNNY   70  58  65 SW22G28   29.81F                  
FORT BRAGG     CLOUDY    70  64  83 SW8       29.81F                  
FAYETTEVILLE   CLOUDY    71  66  84 S12       29.83F                  
BURLINGTON     MOSUNNY   69  55  60 S15G22    29.78F                  
LAURINBURG     CLOUDY    71  67  87 SW13      29.83F                  
$$
 
NCZ011-015-027-028-043-044-047-080-103-241800-
NORTHEASTERN NORTH CAROLINA
  
CITY           SKY/WX    TMP DP  RH WIND       PRES   REMARKS
ROCKY MT-WILSO PTSUNNY   71  62  73 SW10      29.82F                  
GREENVILLE     PTSUNNY   72  66  83 SW12      29.87F                  
WASHINGTON     PTSUNNY   72  66  81 SW9       29.87F                  
ELIZABETH CITY MOSUNNY   74  65  73 S16G23    29.84F                  
MANTEO         PTSUNNY   64  63  96 S13       29.87S                  
CAPE HATTERAS  CLOUDY    68  67  96 SW12      29.91R FOG              
$$
 
NCZ078-087-090-091-093-098-101-241800-
SOUTHEASTERN NORTH CAROLINA
  
CITY           SKY/WX    TMP DP  RH WIND       PRES   REMARKS
LUMBERTON      CLOUDY    71  67  87 SW8       29.83F                  
GOLDSBORO      CLOUDY    71  71  98 SW5       29.82F                  
KINSTON        CLOUDY    72  66  83 S9        29.86F                  
KENANSVILLE    CLOUDY    68  66  93 CALM      29.87F                  
NEW BERN       LGT RAIN  71  67  87 S7        29.89F FOG              
CHERRY POINT   CLOUDY    71  68  90 SW8       29.89F FOG              
BEAUFORT       CLOUDY    67  66  97 SW13      29.91S FOG              
JACKSONVILLE   CLOUDY    70  68  93 S5        29.87F                  
WILMINGTON     CLOUDY    71  69  93 SW10G20   29.87F                  
$$


Return to Home page


Western Regional Climate Center, wrcc@dri.edu